CAPE
0 1 1 1 0 1 0 1 1 1 1 3 2 1 0 0 0 0 0 0 0 0 0 0 0 0 0 0 0 0 0 0 0 0 0 0 0 0 0 0 0 55 1176 1582 1679
1 1 2 1 2 1 0 1 0 2 1 2 3 3 0 0 0 0 0 0 0 0 0 0 0 0 0 0 0 0 0 0 0 0 0 0 0 0 0 0 0 2269 1602 1713 1723
1 2 1 1 0 0 0 1 1 0 1 1 2 4 0 0 0 0 0 0 0 0 0 0 0 0 0 0 0 0 0 0 0 0 0 0 0 0 0 0 0 1672 1813 1710 1651
0 1 2 2 2 0 0 0 0 1 2 1 2 1 0 0 0 0 0 0 0 0 0 0 0 0 0 0 0 0 0 0 0 0 0 0 0 0 0 0 0 493 1265 1637 1709
1 1 2 1 2 1 0 1 1 1 0 0 0 0 0 0 0 0 0 0 0 0 0 0 0 0 0 0 0 0 0 0 0 0 0 0 0 0 0 0 0 3 1131 1358 1500
2 2 1 0 0 0 0 1 0 0 0 0 0 0 0 0 0 0 0 0 0 0 0 0 0 0 0 0 0 0 0 0 0 0 0 0 0 0 0 0 0 0 493 1121 1491
0 1 0 0 0 0 0 0 0 0 0 0 0 0 0 0 0 0 0 0 0 0 0 0 0 0 0 0 0 0 0 0 0 0 0 0 0 0 0 0 0 0 0 867 1173
0 1 0 0 0 0 0 0 0 0 0 0 0 0 0 0 0 0 0 0 0 0 0 0 0 0 0 0 0 0 0 0 0 0 0 0 0 0 0 0 0 0 0 953 851
1 0 0 0 0 0 0 0 0 0 0 0 0 0 0 0 0 0 0 0 0 0 0 0 0 0 0 0 0 0 0 0 0 0 0 0 0 0 0 0 0 0 0 0 500
0 0 0 0 0 0 0 0 0 0 0 0 0 0 0 0 0 0 0 0 0 0 0 0 0 0 0 0 0 0 0 0 0 0 0 0 0 0 0 0 0 0 0 0 3
0 0 0 0 0 0 0 0 0 0 0 0 0 0 0 0 0 0 0 0 0 0 0 0 0 0 0 0 0 0 0 30 0 0 2 3 0 0 0 0 0 0 0 0 0
0 0 0 0 0 0 0 0 0 0 0 0 0 0 0 0 0 2 0 0 0 0 0 0 0 0 0 0 0 0 0 1 3 0 16 12 0 0 0 0 0 0 0 0 0
0 0 0 0 0 0 0 0 0 0 0 0 0 0 0 0 0 4 0 0 0 0 0 0 0 0 1 0 0 0 0 0 0 0 0 0 0 0 0 0 0 0 0 0 0
0 0 0 0 0 0 0 0 0 0 0 0 0 0 0 10 1 11 0 0 0 0 0 0 0 3 1 4 8 0 0 0 0 0 0 5 0 0 0 0 0 0 0 0 0
0 0 0 0 0 0 0 0 0 0 0 0 0 0 0 0 9 22 1 0 0 0 0 0 0 0 0 16 11 5 0 0 0 0 0 0 0 0 0 0 0 0 0 0 0
0 0 0 0 0 0 0 0 0 0 0 0 0 0 0 5 13 12 11 3 7 0 0 0 4 1 0 2 1 1 3 0 0 0 0 0 0 0 0 0 0 0 0 0 0
0 0 0 0 0 0 0 0 0 0 0 0 0 0 0 8 4 7 10 6 6 0 0 0 0 0 7 1 0 3 12 0 0 0 0 0 0 0 0 0 0 0 0 0 0
0 0 0 0 0 0 0 0 0 0 0 0 0 0 0 0 1 3 1 0 5 2 5 0 0 1 0 0 4 28 15 1 3 0 0 0 0 0 0 0 0 0 0 0 0
0 0 0 0 0 0 0 0 0 0 0 0 0 0 0 0 7 0 0 0 12 0 6 6 0 0 0 1 41 29 3 12 6 2 0 0 0 6 0 0 0 0 0 0 0
0 0 0 0 0 0 0 0 0 0 0 0 0 0 0 0 0 0 2 9 1 1 1 4 2 0 13 0 19 50 10 0 1 0 0 0 0 0 0 0 1 0 0 0 411
0 0 0 0 0 0 0 0 0 0 0 0 0 0 0 0 0 2 9 0 0 0 0 2 8 0 0 4 0 58 19 0 0 4 0 0 0 0 0 3 2 0 0 0 777
0 0 0 0 0 0 0 0 0 0 3 0 0 0 0 0 1 17 4 4 7 1 2 1 8 0 0 0 3 53 0 0 0 0 2 1 0 0 0 0 2 0 0 0 276
0 0 0 0 0 0 0 0 0 0 0 0 0 0 2 3 8 0 18 26 13 0 0 1 6 0 0 0 0 0 0 0 0 0 0 0 0 0 0 0 0 0 0 0 0
0 0 0 0 0 0 0 0 0 0 0 0 0 2 0 0 0 0 3 29 8 0 4 4 1 0 0 9 0 0 0 0 1 0 0 0 0 0 0 0 0 0 0 17 83
0 0 0 0 0 0 0 0 0 0 0 0 0 0 9 0 0 0 0 0 0 0 1 3 0 3 1 0 0 0 0 0 0 0 0 0 0 0 0 0 0 0 0 478 1068
0 0 0 0 0 0 0 0 0 0 0 0 0 0 10 0 6 0 0 0 9 0 2 0 0 1 0 0 0 0 0 0 0 0 0 0 0 0 0 0 0 0 0 0 639
0 0 0 0 0 0 0 0 0 0 0 0 0 3 2 1 0 0 0 0 0 0 0 1 2 1 0 0 1 0 0 0 0 0 0 0 0 0 0 0 0 0 0 0 0
CIN
-0 -0 -0 -0 -0 -0 -0 -0 -0 -0 -0 -0 -0 -0 -0 -0 -0 -0 -0 -0 -0 -0 -0 -0 -0 -0 -0 -0 -0 -0 -0 -0 -0 -0 -0 -0 -0 -0 -0 -0 -0 -13 -37 -107 -70
-0 -0 -0 -0 -0 -0 -0 -0 -0 -0 -0 -0 -0 -0 -0 -0 -0 -0 -0 -0 -0 -0 -0 -0 -0 -0 -0 -0 -0 -0 -0 -0 -0 -0 -0 -0 -0 -0 -0 -0 -0 -30 -98 -67 -111
-0 -0 -0 -0 -0 -0 -0 -0 -0 -0 -0 -0 -0 -0 -0 -0 -0 -0 -0 -0 -0 -0 -0 -0 -0 -0 -0 -0 -0 -0 -0 -0 -0 -0 -0 -0 -0 -0 -0 -0 -0 -36 -41 -54 -71
-0 -0 -0 -0 -0 -0 -0 -0 -0 -0 -0 -0 -0 -0 -0 -0 -0 -0 -0 -0 -0 -0 -0 -0 -0 -0 -0 -0 -0 -0 -0 -0 -0 -0 -0 -0 -0 -0 -0 -0 -0 -44 -53 -39 -60
-0 -0 -0 -0 -0 -0 -0 -0 -0 -0 -0 -0 -0 -0 -0 -0 -0 -0 -0 -0 -0 -0 -0 -0 -0 -0 -0 -0 -0 -0 -0 -0 -0 -0 -0 -0 -0 -0 -0 -0 -0 -3 -41 -45 -44
-0 -0 -0 -0 -0 -0 -0 -0 -0 -0 -0 -0 -0 -0 -0 -0 -0 -0 -0 -0 -0 -0 -0 -0 -0 -0 -0 -0 -0 -0 -0 -0 -0 -0 -0 -0 -0 -0 -0 -0 -0 -0 -39 -28 -39
-0 -0 -0 -0 -0 -0 -0 -0 -0 -0 -0 -0 -0 -0 -0 -0 -0 -0 -0 -0 -0 -0 -0 -0 -0 -0 -0 -0 -0 -0 -0 -0 -0 -0 -0 -0 -0 -0 -0 -0 -0 -0 -0 -24 -38
-0 -0 -0 -0 -0 -0 -0 -0 -0 -0 -0 -0 -0 -0 -0 -0 -0 -0 -0 -0 -0 -0 -0 -0 -0 -0 -0 -0 -0 -0 -0 -0 -0 -0 -0 -0 -0 -0 -0 -0 -0 -0 -0 -23 -32
-0 -0 -0 -0 -0 -0 -0 -0 -0 -0 -0 -0 -0 -0 -0 -0 -0 -0 -0 -0 -0 -0 -0 -0 -0 -0 -0 -0 -0 -0 -0 -0 -0 -0 -0 -0 -0 -0 -0 -0 -0 -0 -0 -0 -26
-0 -0 -0 -0 -0 -0 -0 -0 -0 -0 -0 -0 -0 -0 -0 -0 -0 -0 -0 -0 -0 -0 -0 -0 -0 -0 -0 -0 -0 -0 -0 -0 -0 -0 -0 -0 -0 -0 -0 -0 -0 -0 -0 -0 -106
-0 -0 -0 -0 -0 -0 -0 -0 -0 -0 -0 -0 -0 -0 -0 -0 -0 -0 -0 -0 -0 -0 -0 -0 -0 -0 -0 -0 -0 -0 -0 -85 -0 -0 -74 -56 -0 -0 -0 -0 -0 -0 -0 -0 -0
-0 -0 -0 -0 -0 -0 -0 -0 -0 -0 -0 -0 -0 -0 -0 -0 -0 -3 -0 -0 -0 -0 -0 -0 -1 -0 -0 -0 -0 -0 -0 -8 -1 -0 -27 -52 -0 -0 -0 -0 -0 -0 -0 -0 -0
-0 -0 -0 -0 -0 -0 -0 -0 -0 -0 -0 -0 -0 -0 -0 -0 -0 -17 -1 -2 -4 -0 -0 -1 -0 -4 -3 -0 -0 -0 -0 -0 -0 -0 -0 -0 -0 -0 -0 -0 -0 -0 -0 -0 -0
-0 -0 -0 -0 -0 -0 -0 -0 -0 -0 -0 -0 -0 -0 -0 -23 -3 -24 -0 -0 -0 -0 -0 -0 -0 -9 -10 -1 -17 -2 -0 -0 -0 -0 -0 -8 -0 -0 -0 -0 -0 -0 -0 -0 -0
-0 -0 -0 -0 -0 -0 -0 -0 -0 -0 -0 -0 -0 -0 -0 -1 -6 -4 -2 -0 -0 -0 -0 -0 -0 -0 -0 -3 -13 -17 -0 -0 -0 -0 -0 -0 -0 -0 -0 -0 -0 -0 -0 -0 -0
-0 -0 -0 -0 -0 -0 -0 -0 -0 -0 -0 -0 -0 -0 -0 -8 -14 -6 -9 -4 -17 -0 -0 -0 -32 -5 -2 -10 -6 -12 -17 -0 -0 -0 -0 -0 -0 -0 -0 -0 -0 -0 -0 -0 -0
-0 -0 -0 -0 -0 -0 -0 -0 -0 -0 -0 -0 -0 -0 -0 -3 -1 -11 -12 -9 -3 -1 -0 -0 -0 -9 -17 -8 -0 -10 -20 -0 -0 -0 -0 -0 -0 -0 -0 -0 -0 -0 -0 -0 -0
-0 -0 -0 -0 -0 -0 -0 -0 -0 -0 -0 -0 -0 -0 -0 -0 -1 -5 -1 -0 -3 -10 -0 -0 -1 -12 -0 -4 -17 -4 -13 -18 -5 -0 -0 -0 -0 -0 -0 -0 -0 -0 -0 -0 -0
-0 -0 -0 -0 -0 -0 -0 -1 -0 -0 -0 -0 -0 -0 -0 -0 -1 -0 -0 -0 -8 -1 -0 -3 -0 -0 -1 -41 -11 -11 -38 -48 -13 -22 -0 -0 -0 -171 -9 -0 -0 -0 -0 -0 -0
-0 -0 -0 -0 -0 -0 -0 -0 -0 -0 -0 -0 -0 -0 -0 -0 -0 -0 -4 -5 -1 -0 -1 -0 -0 -0 -15 -0 -56 -36 -37 -0 -16 -0 -0 -0 -0 -0 -0 -0 -23 -0 -0 -0 -50
-0 -0 -0 -0 -0 -0 -0 -0 -0 -0 -0 -0 -0 -0 -0 -0 -0 -2 -4 -0 -0 -0 -2 -2 -0 -0 -0 -24 -0 -9 -19 -0 -9 -9 -0 -0 -0 -0 -0 -32 -90 -0 -0 -0 -38
-0 -0 -0 -0 -0 -0 -0 -0 -0 -0 -3 -0 -0 -0 -0 -0 -4 -3 -4 -14 -13 -2 -0 -1 -0 -0 -0 -1 -30 -19 -0 -0 -0 -0 -2 -0 -0 -0 -0 -0 -267 -0 -0 -0 -63
-0 -0 -0 -0 -0 -0 -0 -0 -0 -0 -0 -0 -0 -3 -3 -3 -3 -2 -6 -9 -26 -1 -0 -0 -1 -0 -0 -0 -0 -0 -6 -0 -0 -0 -0 -0 -0 -0 -0 -0 -0 -0 -0 -0 -0
-0 -0 -0 -0 -0 -0 -0 -0 -0 -0 -0 -0 -0 -1 -0 -0 -0 -1 -4 -12 -36 -0 -9 -2 -0 -0 -0 -28 -0 -0 -0 -0 -4 -0 -0 -0 -0 -0 -0 -0 -0 -0 -0 -149 -93
-0 -0 -0 -0 -0 -0 -0 -0 -0 -0 -0 -0 -0 -0 -2 -0 -0 -3 -0 -1 -0 -0 -6 -0 -0 -0 -0 -0 -0 -0 -0 -0 -0 -0 -0 -0 -0 -0 -0 -0 -0 -0 -0 -127 -62
-0 -0 -0 -0 -0 -0 -0 -0 -0 -0 -0 -0 -0 -0 -1 -0 -6 -0 -0 -0 -1 -0 -0 -0 -0 -0 -0 -0 -0 -0 -0 -0 -0 -0 -0 -0 -0 -0 -0 -0 -0 -0 -0 -0 -18
-0 -0 -0 -0 -0 -0 -0 -0 -0 -0 -0 -0 -0 -7 -5 -4 -0 -0 -0 -0 -8 -0 -0 -0 -0 -0 -0 -0 -0 -0 -0 -0 -0 -0 -0 -0 -0 -0 -0 -0 -0 -0 -0 -0 -0
Wind_Speed
31 34 32 21 21 22 21 21 21 20 18 18 18 21 21 21 20 18 18 16 19 24 23 21 23 22 18 21 28 30 42 45 46 45 44 42 39 38 36 42 38 32 10 8 11
32 31 21 15 17 19 19 20 20 20 19 18 17 20 20 19 18 16 15 17 19 21 20 23 26 25 21 19 20 28 41 46 43 45 45 45 42 40 35 36 37 6 6 13 14
24 24 17 16 16 18 19 19 19 20 19 18 18 19 18 18 20 19 16 17 18 21 19 23 25 25 24 27 26 27 39 40 45 43 45 48 48 39 35 37 31 12 11 13 12
20 22 17 15 16 17 20 21 19 19 19 19 19 19 18 19 24 17 18 17 18 19 22 21 22 22 24 24 26 35 37 38 39 46 47 50 46 46 38 39 37 28 16 16 15
23 21 17 13 15 18 20 20 20 19 18 19 19 20 20 21 19 16 17 16 17 20 20 19 24 25 26 29 31 33 35 37 39 39 45 47 50 48 45 38 35 32 20 21 18
26 24 16 12 14 17 19 20 20 18 18 18 18 18 20 25 18 15 16 17 14 24 26 25 24 25 26 28 31 32 37 37 39 38 39 45 50 46 49 38 36 33 24 24 23
32 26 15 13 15 17 19 19 19 18 18 18 18 18 18 19 18 15 15 15 19 21 26 26 26 26 27 32 28 34 38 39 39 38 40 40 52 53 47 41 38 33 28 24 25
31 25 16 16 16 17 18 17 17 17 16 16 18 19 18 15 20 17 13 20 26 16 24 23 23 24 23 26 32 34 35 38 35 37 41 38 54 54 47 42 41 34 30 19 24
30 25 19 19 19 19 18 16 16 15 15 13 19 19 22 15 17 21 19 21 24 19 16 19 20 19 22 25 31 25 40 42 42 35 36 36 50 55 49 45 44 39 36 28 24
31 25 16 21 21 21 20 16 18 17 17 13 13 20 18 23 22 18 14 18 19 23 21 14 17 15 18 18 24 29 37 41 44 34 34 42 48 51 55 50 49 42 41 41 25
28 23 14 17 21 23 25 23 29 25 20 16 15 16 18 20 18 13 17 21 18 16 12 15 13 19 19 17 19 20 34 39 45 40 36 40 50 50 48 55 53 47 44 45 32
25 19 10 16 20 22 22 26 31 21 23 12 8 11 13 16 20 20 17 16 19 24 27 22 10 13 14 17 16 15 15 40 40 35 31 36 39 39 47 54 56 51 47 46 31
22 17 11 18 18 22 21 25 26 23 21 20 12 17 17 15 17 18 18 13 16 18 20 18 17 20 14 13 9 7 31 37 36 35 36 39 42 41 41 48 59 55 53 45 34
26 18 18 19 23 24 27 25 23 19 26 25 19 17 18 17 19 15 16 19 19 15 15 19 19 10 22 10 9 8 27 34 34 35 35 24 42 40 39 47 57 59 56 49 33
26 22 20 23 21 25 27 25 24 19 32 28 29 18 24 20 17 17 14 17 17 17 22 11 12 17 7 5 20 5 22 28 33 37 37 31 32 42 40 43 53 56 56 50 39
24 23 23 23 19 16 24 21 19 26 29 25 30 32 26 24 20 22 19 16 19 22 14 14 10 10 7 6 11 12 12 28 34 36 44 40 33 42 43 41 48 49 52 46 39
24 19 19 20 22 27 28 24 25 31 34 30 38 33 24 30 27 23 23 20 25 16 20 20 9 4 7 7 10 10 18 27 26 26 36 24 34 44 29 42 46 53 51 48 39
32 16 18 16 15 24 26 26 28 34 33 34 34 26 29 33 29 27 27 20 23 23 17 17 13 17 24 3 10 6 6 24 23 23 33 34 32 40 45 46 47 52 54 48 39
20 23 20 20 16 26 30 29 31 37 34 36 33 30 30 30 28 30 27 21 25 28 20 15 10 19 4 7 3 3 18 29 28 30 27 24 35 40 38 46 50 58 59 52 39
33 24 18 22 22 26 28 30 37 31 30 32 32 30 35 33 35 31 25 16 28 22 25 13 10 4 13 11 6 1 19 23 28 24 24 24 27 34 25 38 43 56 62 53 34
29 27 21 23 18 27 32 33 32 29 30 30 31 29 29 31 30 25 18 21 21 20 20 12 11 8 3 8 8 9 24 25 30 30 23 22 26 15 13 29 27 40 58 53 37
33 28 25 34 28 28 33 32 29 35 30 30 28 25 26 26 23 23 19 19 12 20 16 13 12 8 1 9 10 11 29 32 32 30 30 31 35 27 21 13 17 45 47 55 38
36 23 27 33 32 32 30 28 26 32 34 34 26 22 20 23 30 23 19 17 15 19 13 15 10 11 7 9 9 8 25 31 35 35 35 36 32 25 24 17 16 12 21 45 44
29 29 30 24 34 28 27 25 31 30 30 33 24 23 25 26 22 20 20 19 21 17 9 13 7 4 6 5 9 4 17 29 34 39 37 43 40 31 29 22 16 13 16 24 37
26 27 28 26 28 22 22 20 38 32 29 33 24 23 24 27 22 22 21 20 24 18 14 10 3 2 5 10 12 11 13 26 30 45 47 39 42 38 36 29 17 15 14 21 26
29 28 24 18 17 20 23 27 27 37 31 26 30 17 20 21 24 25 18 14 22 13 12 11 9 8 7 6 8 14 18 24 32 39 53 44 47 43 39 36 27 19 19 14 24
29 25 19 19 22 23 23 24 21 30 24 21 20 17 19 23 19 18 13 12 8 13 10 14 12 18 12 12 7 5 10 19 31 40 44 52 44 40 41 39 32 27 22 21 23
Wind_Direction
338 354 13 36 35 32 31 29 26 25 24 22 18 13 10 6 7 8 358 1 349 341 339 337 326 319 312 296 274 270 261 261 259 258 260 258 262 261 261 256 262 272 270 166 136
13 15 32 38 35 32 31 28 25 23 23 22 21 18 15 15 11 9 14 6 355 346 338 330 321 320 306 301 291 269 262 260 264 263 262 259 263 261 274 267 256 310 158 153 154
32 26 32 33 32 31 29 26 25 23 25 25 25 25 29 29 24 26 25 9 355 347 336 320 313 313 306 297 287 277 268 269 264 264 263 259 260 269 269 261 265 221 189 178 171
32 28 29 31 30 28 26 25 24 26 29 30 31 33 37 39 13 30 15 6 357 345 334 329 324 315 307 299 296 278 274 271 271 265 263 259 262 258 263 257 263 247 211 196 192
28 27 29 30 30 27 25 25 25 29 32 33 37 40 39 26 25 30 22 19 7 343 336 335 324 315 306 297 293 286 282 278 272 271 264 262 256 254 256 264 268 254 224 222 224
26 26 29 32 31 28 25 26 27 31 33 35 40 38 33 21 32 37 25 14 5 330 318 315 328 320 312 298 292 293 288 286 278 274 269 260 256 255 249 262 264 259 239 229 226
23 25 30 33 30 27 25 26 28 30 35 38 41 39 30 29 34 25 17 8 351 338 321 315 320 327 314 302 299 296 290 284 277 276 269 265 254 248 247 255 260 261 262 230 228
22 25 30 33 30 27 26 28 28 31 36 42 44 41 30 41 25 26 22 4 343 1 331 328 324 328 323 312 300 297 293 283 280 277 267 266 251 247 247 251 253 259 255 230 232
21 24 29 31 29 27 29 29 28 33 40 47 38 37 25 39 31 15 12 2 346 348 357 347 338 340 327 316 305 306 287 279 272 274 270 262 254 248 246 249 250 252 249 255 235
20 23 28 28 29 28 29 28 33 37 41 57 48 28 31 22 19 26 33 17 2 343 340 349 348 348 339 326 319 312 298 279 268 273 274 260 255 251 245 247 246 248 248 249 252
18 22 26 30 27 27 26 31 22 28 29 33 25 23 26 27 31 29 20 4 1 353 348 348 342 342 342 336 334 322 291 275 263 267 279 273 253 252 250 240 241 244 246 245 258
13 18 9 28 26 26 28 25 19 25 21 34 27 30 26 35 23 30 19 13 3 342 331 339 306 324 334 339 339 335 315 255 266 266 278 273 264 258 248 239 238 240 244 241 252
0 9 9 25 26 30 30 20 26 32 25 23 46 31 25 34 23 16 13 9 360 348 340 333 328 332 330 331 336 325 295 263 261 270 271 273 264 255 252 242 235 238 240 242 246
8 8 21 21 28 25 21 29 29 42 24 26 29 36 28 29 18 20 24 11 5 360 348 334 332 318 330 328 332 308 304 274 273 272 265 284 261 257 254 240 232 234 235 239 242
3 12 20 23 22 20 20 25 35 45 12 21 30 38 9 21 20 25 32 13 2 353 352 312 322 328 289 298 326 306 315 289 268 268 271 276 268 252 253 243 229 230 231 235 235
347 15 23 32 31 26 16 24 36 21 12 20 16 9 13 22 19 15 16 15 6 353 334 302 269 310 288 301 340 341 335 288 265 269 260 262 270 255 247 240 231 230 229 233 227
335 19 31 31 29 17 14 22 15 12 7 9 2 7 11 17 15 16 16 15 12 5 0 4 342 304 274 250 219 341 331 282 270 272 248 281 270 247 258 242 236 227 227 229 227
320 30 40 38 33 18 17 12 8 3 3 3 4 7 14 9 12 15 9 9 21 14 6 25 34 22 354 295 332 7 341 268 277 276 265 278 265 228 220 215 232 227 226 228 230
348 26 31 31 33 20 12 10 6 358 0 359 5 9 8 8 10 9 11 22 17 19 22 17 38 281 343 21 218 314 296 259 264 243 253 227 248 248 227 224 227 226 223 225 226
11 19 25 23 25 16 9 2 355 2 2 3 2 5 0 4 6 9 14 27 8 23 22 30 1 55 37 30 88 306 297 261 244 253 259 223 239 208 247 226 235 217 218 220 220
16 14 26 19 25 15 6 1 359 5 3 0 359 360 4 3 4 4 17 8 19 12 16 18 39 51 86 93 107 89 251 245 234 231 223 230 206 243 280 235 238 222 216 218 217
12 10 19 5 10 9 1 1 1 355 1 3 3 9 2 360 359 6 3 6 7 11 18 37 38 36 104 206 191 181 239 226 232 230 230 230 233 258 269 256 318 221 217 218 220
5 13 12 10 6 2 5 2 2 360 357 357 4 3 0 358 1 358 10 2 17 9 26 32 48 34 63 97 147 144 247 249 246 244 230 230 230 246 252 271 312 282 234 219 221
9 5 8 18 7 7 3 1 358 5 0 356 0 4 6 2 2 356 358 9 5 8 30 33 52 69 50 68 53 102 226 245 258 236 240 230 239 240 265 273 293 297 251 235 226
11 8 8 3 5 0 358 355 351 359 5 355 6 6 2 358 354 359 359 1 0 7 22 41 30 19 286 255 248 244 223 228 231 248 235 237 235 248 248 268 282 291 275 237 221
3 4 6 354 4 1 5 3 358 351 359 5 358 348 354 353 2 352 348 348 354 8 15 21 14 11 307 267 283 248 233 227 228 230 245 252 240 254 251 260 272 278 265 242 229
359 1 6 4 3 3 7 357 349 354 6 354 348 349 357 5 355 345 329 310 341 353 4 359 7 4 351 3 360 308 242 231 231 231 237 246 248 253 251 247 255 259 253 247 252